Location: West Lake
(43.9414°N, 77.2811°W)
Time: 01:42:52
(UTC+00:00)

Daily predictions for brighter satellites

Satellite Brightness Start Highest point End
(mag) Time Altitude Azimuth Time Altitude Azimuth Time Altitude Azimuth
Cosmos 372 Rocket 3.9 00:02:49 10° SSW 00:07:36 77° SSW 00:07:36 77° SSW
Cosmos 1980 Rocket 2.1 00:03:51 10° SSW 00:09:31 82° WNW 00:10:06 72° N
USA 81 4.5 00:07:06 10° NNW 00:12:18 61° W 00:17:27 10° S
NOAA 6 4.3 00:09:40 10° S 00:14:44 65° WSW 00:19:49 10° NNW
Cosmos 2369 4.4 00:10:18 10° SSW 00:14:04 41° S 00:14:04 41° S
Cosmos 1244 Rocket 4.5 00:10:53 10° N 00:17:11 81° W 00:23:23 10° S
YAOGAN 1 4.3 00:18:54 10° SSW 00:22:40 31° W 00:26:28 10° NNW
USA 238 DEB 3.5 00:18:46 10° SW 00:24:49 72° NW 00:25:19 69° NNW
USA 238 3.5 00:18:51 10° SW 00:24:55 73° NW 00:25:24 70° NNW
Cosmos 2263 Rocket 2.4 00:19:35 10° NNW 00:25:13 69° WSW 00:25:13 69° WSW
USA 215 3.9 00:29:21 42° N 00:29:21 42° N 00:34:32 10° NW
Cosmos 2227 Rocket 3.8 00:31:27 10° NW 00:36:21 31° WSW 00:41:15 10° SSW
BREEZE-M DEB (TANK) 4.2 00:45:41 10° WNW 00:50:36 80° SSW 00:51:35 72° SSE
Cosmos 2082 Rocket 4.3 08:42:18 22° ENE 08:42:18 22° ENE 08:44:49 10° NE
Cosmos 1980 Rocket 4.0 09:04:59 24° SE 09:04:59 24° SE 09:07:11 10° SE
CZ-3 R/B 4.3 09:04:09 39° SW 09:06:43 41° SSW 09:17:02 10° SE
COSMOS 2455 3.7 09:12:03 45° ENE 09:12:03 45° ENE 09:17:24 10° SE
USA 59 Rocket 1.8 09:31:36 29° ESE 09:31:36 29° ESE 09:34:24 10° ESE
Cosmos 2333 Rocket 4.3 09:28:33 16° N 09:31:24 22° NE 09:35:48 10° E
USA 234 4.3 09:30:04 10° NE 09:35:12 30° N 09:35:12 30° N
Tiangong 1.3 09:41:52 11° ESE 09:41:52 11° ESE 09:42:00 10° ESE
Cosmos 841 Rocket 4.1 09:38:42 39° SSE 09:40:16 53° ESE 09:45:23 10° NNE
Cosmos 1606 Rocket 4.3 09:50:05 51° E 09:50:05 51° E 09:54:11 10° SSE
Cosmos 2322 Rocket 4.1 09:52:29 13° N 09:56:28 25° NE 10:01:03 10° ESE
NOSS 2-1 (C) 4.1 09:58:24 53° ESE 09:58:24 53° ESE 10:02:21 10° SE
NOSS 3-1 (C) 4.1 09:58:59 35° NNW 10:02:31 75° NE 10:11:26 10° SE
SJ-11-01 4.2 09:59:12 10° NNE 10:03:56 85° ESE 10:08:36 10° SSW
Cosmos 1898 Rocket 3.3 10:06:46 68° NNW 10:07:28 86° WSW 10:12:44 10° SSE
Meteor 2-3 Rocket 4.2 10:02:08 10° S 10:07:46 61° E 10:13:22 10° NNE
Cosmos 2180 Rocket 4.4 10:06:08 47° NW 10:07:49 65° W 10:14:04 10° S
IRS-1D 3.7 10:05:53 10° NNE 10:10:54 71° ESE 10:15:59 10° S
Cosmos 2237 4.1 10:10:44 42° NNW 10:12:45 87° ENE 10:18:26 10° SSE
Cosmos 1726 Rocket 3.6 10:14:07 41° N 10:15:30 71° E 10:19:41 10° SSE
COSMOS 2406 3.1 10:10:19 10° SSW 10:15:59 89° ESE 10:21:42 10° NNE
BREEZE-M DEB (TANK) 4.3 10:21:19 31° NE 10:21:19 31° NE 10:22:39 10° ENE
BREEZE M DEB (TANK) 3.9 10:21:08 16° SSE 10:21:33 17° SE 10:23:27 10° E
Cosmos 2026 Rocket 4.2 10:16:40 10° S 10:22:39 68° E 10:28:42 10° NNE
Cosmos 2082 Rocket 2.5 10:24:11 44° NW 10:24:11 44° NW 10:29:17 10° NNE
SL-16 R/B 2.6 10:20:26 21° NNW 10:24:17 62° ENE 10:29:53 10° SE
Cosmos 1937 Rocket 3.3 10:28:03 37° NNW 10:30:05 75° WSW 10:35:11 10° SSE
Cosmos 858 Rocket 4.5 10:27:38 23° NNW 10:30:53 80° ENE 10:36:04 10° SSE
Cosmos 372 Rocket 4.3 10:31:50 42° WSW 10:31:50 42° WSW 10:36:25 10° S
SWAS 4.2 10:31:50 64° WSW 10:31:56 64° WSW 10:35:55 10° SSE
Helios 1A Rocket 2.8 10:28:56 10° SSE 10:32:13 61° ENE 10:33:19 37° N
Cosmos 1892 Rocket 3.4 10:30:30 10° S 10:34:51 86° W 10:39:17 10° N
SL-4 R/B 2.9 10:43:56 24° N 10:44:09 25° NNE 10:46:52 10° ENE
Cosmos 1980 Rocket 3.7 10:46:48 18° WSW 10:46:48 18° WSW 10:49:03 10° SW
Cosmos 2278 3.7 10:43:19 16° NNW 10:48:00 82° ENE 10:53:39 10° SSE
NOAA 12 4.0 10:42:49 10° N 10:48:03 62° WNW 10:53:12 10° SSW
Cosmos 1092 Rocket 4.0 10:42:00 10° S 10:48:17 88° W 10:54:34 10° N
Cosmos-2242 3.2 10:44:36 10° N 10:48:51 71° E 10:53:01 10° SSE
COSMO-SKYMED 1 2.3 10:45:59 10° S 10:50:04 70° WSW 10:53:03 18° NNW
Nadezhda 4 Rocket 4.3 10:46:05 10° SW 10:52:00 42° WNW 10:57:56 10° N
Cosmos 2369 4.4 10:51:35 29° W 10:52:52 32° WSW 10:57:48 10° SSW
COSMOS 2455 3.5 10:55:14 26° WNW 10:57:24 34° WSW 11:02:43 10° S
CZ-4 R/B 4.0 10:54:28 10° N 10:58:53 45° WNW 11:03:16 10° SW
SKYMED 2 4.4 11:05:10 10° SSW 11:08:59 30° W 11:10:58 21° NW
Cosmos 405 Rocket 2.8 11:05:48 10° S 11:09:00 60° E 11:12:14 10° NNE
NOSS 3-1 (A) 4.1 11:03:21 13° NW 11:10:01 89° NE 11:19:04 10° SE
Cosmos 2058 Rocket 3.1 11:06:27 10° NNW 11:10:50 61° W 11:15:08 10° S
Meteor 2-2 Rocket 4.2 11:08:05 10° NNW 11:13:45 67° W 11:19:29 10° S
Tiangong 0.2 11:14:12 12° SW 11:15:27 14° SSW 11:17:16 10° S
Thor Agena Rocket 4.2 11:10:48 10° NNE 11:15:47 56° ESE 11:20:42 10° S
Cosmos 2333 Rocket 2.2 11:10:35 10° NNW 11:16:17 71° WSW 11:21:58 10° SSE
USA 234 4.4 11:11:52 10° ENE 11:17:26 31° N 11:22:33 12° NW
Cosmos 2360 Rocket 2.3 11:12:26 10° NNW 11:18:06 83° ENE 11:23:42 10° SSE
USA 59 Rocket 1.5 11:17:18 17° W 11:18:41 20° WSW 11:22:21 10° SSW
IGS 5A 3.2 11:15:55 10° N 11:19:55 74° WNW 11:23:54 10° SSW
IRIDIUM 106 4.3 11:16:07 10° S 11:21:20 88° W 11:26:35 10° N
Cosmos 158 Rocket 4.0 11:25:37 10° SSW 11:30:57 81° WNW 11:36:15 10° NNE
BREEZE-M DEB (TANK) 2.0 11:32:26 19° NW 11:33:30 48° NNE 11:36:00 10° ESE
BREEZE-M DEB (TANK) 3.9 11:33:24 15° NW 11:35:26 36° NNE 11:40:53 10° E
Cosmos 2219 Rocket 2.5 11:30:27 10° NNW 11:36:07 70° ENE 11:41:43 10° SSE
SL-08 ROCKET BODY 4.3 11:31:21 10° SSW 11:37:11 75° W 11:43:03 10° N
Cosmos 2322 Rocket 2.3 11:35:18 10° NNW 11:40:54 59° WSW 11:46:27 10° S
Meteor 2-6 Rocket 4.4 11:37:05 10° NNW 11:43:01 70° W 11:48:54 10° S
Cosmos 1484 Rocket 3.4 11:41:32 10° NNW 11:44:26 26° WNW 11:47:17 10° SW
Cosmos 1758 Rocket 3.6 11:40:47 10° SSW 11:45:07 56° W 11:49:28 10° N
Cosmos 1437 Rocket 3.1 11:43:08 10° N 11:46:33 56° ENE 11:49:57 10° SSE
Cosmos 1125 Rocket 4.0 11:42:13 10° NNW 11:47:27 63° ENE 11:52:36 10° SSE
Cosmos 2151 2.8 11:49:23 10° SSW 11:53:27 76° W 11:57:34 10° N
SL-08 R/B 4.3 11:50:35 10° SE 11:54:58 46° ENE 11:59:25 10° N
